JST926 YSSY-YMML

Flight info

Callsign JST926
Flight time 1h 19m
Altitude 32000
Route MARUB7/34R WOL H65 LEECE Q29 ML
Aircraft A320/M-SDE3FGHIRWY/LB1

Departure

Time 2026-05-04 10:25
Airport Sydney Kingsford Smith International Airport (YSSY)

Arrival

Time 2026-05-04 11:44
Airport Melbourne Airport (YMML)
Time Latitude Longitude Altitude Speed Heading
2026-05-04 10:08 -33.93514 151.17689 30 ft 0 kts 101°
2026-05-04 10:10 -33.93512 151.17679 30 ft 4 kts 101°
2026-05-04 10:10 -33.93507 151.17647 30 ft 4 kts 101°
2026-05-04 10:10 -33.93503 151.17620 30 ft 4 kts 106°
2026-05-04 10:10 -33.93491 151.17593 30 ft 4 kts 143°
2026-05-04 10:11 -33.93473 151.17582 30 ft 0 kts 168°
2026-05-04 10:16 -33.93685 151.17662 30 ft 11 kts 152°
2026-05-04 10:16 -33.93766 151.17691 30 ft 13 kts 169°
2026-05-04 10:16 -33.93849 151.17740 30 ft 14 kts 130°
2026-05-04 10:16 -33.93944 151.17790 29 ft 16 kts 168°
2026-05-04 10:17 -33.94062 151.17821 29 ft 18 kts 167°
2026-05-04 10:17 -33.94188 151.17854 30 ft 19 kts 168°
2026-05-04 10:19 -33.95005 151.18006 30 ft 18 kts 168°
2026-05-04 10:19 -33.95084 151.18040 30 ft 13 kts 137°
2026-05-04 10:19 -33.95092 151.18145 30 ft 14 kts 78°
2026-05-04 10:19 -33.95070 151.18271 30 ft 16 kts 78°
2026-05-04 10:20 -33.95044 151.18413 30 ft 17 kts 78°
2026-05-04 10:20 -33.95092 151.18521 30 ft 17 kts 145°
2026-05-04 10:20 -33.95183 151.18617 30 ft 18 kts 138°
2026-05-04 10:20 -33.95294 151.18704 30 ft 20 kts 162°
2026-05-04 10:21 -33.95434 151.18750 30 ft 22 kts 166°
2026-05-04 10:21 -33.95587 151.18790 30 ft 23 kts 168°
2026-05-04 10:21 -33.95750 151.18832 30 ft 25 kts 167°
2026-05-04 10:21 -33.95923 151.18876 30 ft 26 kts 167°
2026-05-04 10:22 -33.96299 151.18974 30 ft 29 kts 168°
2026-05-04 10:22 -33.96504 151.19028 30 ft 31 kts 167°
2026-05-04 10:22 -33.96713 151.19074 30 ft 29 kts 179°
2026-05-04 10:23 -33.96898 151.19084 30 ft 27 kts 167°
2026-05-04 10:23 -33.97063 151.19127 30 ft 19 kts 169°
2026-05-04 10:25 -33.94062 151.18733 819 ft 147 kts
2026-05-04 10:25 -33.93127 151.19233 1411 ft 153 kts 39°
2026-05-04 10:25 -33.92582 151.20376 1894 ft 173 kts 73°
2026-05-04 10:25 -33.92828 151.21906 2278 ft 201 kts 113°
2026-05-04 10:26 -33.93499 151.23415 2793 ft 207 kts 111°
2026-05-04 10:26 -33.93836 151.25123 3049 ft 217 kts 78°
2026-05-04 10:26 -33.93599 151.27002 3319 ft 240 kts 78°
2026-05-04 10:26 -33.93486 151.29119 3711 ft 267 kts 83°
2026-05-04 10:27 -33.93455 151.31431 4089 ft 291 kts 85°
2026-05-04 10:27 -33.93443 151.33967 4476 ft 312 kts 85°
2026-05-04 10:27 -33.93427 151.36636 4897 ft 323 kts 85°
2026-05-04 10:27 -33.93401 151.39341 4991 ft 324 kts 86°
2026-05-04 10:28 -33.93786 151.42022 5009 ft 330 kts 108°
2026-05-04 10:28 -33.95061 151.44348 5288 ft 340 kts 136°
2026-05-04 10:28 -33.97021 151.45963 6079 ft 346 kts 152°
2026-05-04 10:28 -33.99156 151.47335 6841 ft 350 kts 153°
2026-05-04 10:29 -34.01324 151.48706 7590 ft 354 kts 153°
2026-05-04 10:29 -34.03596 151.49847 8315 ft 356 kts 168°
2026-05-04 10:29 -34.06050 151.50081 9033 ft 354 kts 189°
2026-05-04 10:29 -34.08401 151.49318 9785 ft 349 kts 210°
2026-05-04 10:30 -34.10377 151.47693 10451 ft 342 kts 230°
2026-05-04 10:30 -34.11913 151.45514 11107 ft 342 kts 237°
2026-05-04 10:30 -34.13407 151.43266 11777 ft 345 kts 237°
2026-05-04 10:30 -34.14913 151.40992 12435 ft 348 kts 237°
2026-05-04 10:31 -34.16438 151.38697 13090 ft 352 kts 237°
2026-05-04 10:31 -34.17977 151.36380 13736 ft 356 kts 237°
2026-05-04 10:32 -34.27492 151.22043 17213 ft 372 kts 237°
2026-05-04 10:33 -34.29116 151.19595 17783 ft 374 kts 237°
2026-05-04 10:33 -34.30753 151.17130 18351 ft 377 kts 237°
2026-05-04 10:33 -34.32394 151.14652 18893 ft 378 kts 237°
2026-05-04 10:33 -34.34040 151.12162 19434 ft 380 kts 237°
2026-05-04 10:34 -34.35696 151.09655 19959 ft 382 kts 237°
2026-05-04 10:34 -34.37367 151.07128 20491 ft 384 kts 237°
2026-05-04 10:34 -34.39037 151.04600 21012 ft 386 kts 238°
2026-05-04 10:34 -34.40715 151.02057 21508 ft 388 kts 238°
2026-05-04 10:35 -34.42402 150.99500 21994 ft 389 kts 238°
2026-05-04 10:35 -34.44094 150.96926 22485 ft 391 kts 239°
2026-05-04 10:35 -34.45788 150.94343 22963 ft 393 kts 239°
2026-05-04 10:35 -34.47496 150.91743 23448 ft 394 kts 239°
2026-05-04 10:36 -34.49212 150.89136 23863 ft 397 kts 239°
2026-05-04 10:36 -34.50936 150.86519 24268 ft 398 kts 239°
2026-05-04 10:36 -34.52666 150.83882 24646 ft 400 kts 239°
2026-05-04 10:36 -34.54401 150.81231 25018 ft 402 kts 239°
2026-05-04 10:37 -34.56143 150.78564 25382 ft 404 kts 240°
2026-05-04 10:37 -34.57851 150.75848 25742 ft 405 kts 241°
2026-05-04 10:37 -34.59523 150.73089 26111 ft 406 kts 242°
2026-05-04 10:37 -34.61180 150.70300 26486 ft 408 kts 242°
2026-05-04 10:39 -34.71341 150.53273 28640 ft 421 kts 242°
2026-05-04 10:39 -34.73077 150.50390 28991 ft 423 kts 242°
2026-05-04 10:39 -34.74817 150.47494 29339 ft 425 kts 242°
2026-05-04 10:40 -34.76564 150.44576 29719 ft 428 kts 242°
2026-05-04 10:40 -34.78318 150.41643 29968 ft 430 kts 242°
2026-05-04 10:40 -34.80080 150.38696 30288 ft 431 kts 242°
2026-05-04 10:40 -34.81844 150.35747 30701 ft 430 kts 242°
2026-05-04 10:41 -34.83599 150.32818 31147 ft 427 kts 242°
2026-05-04 10:41 -34.85340 150.29906 31572 ft 424 kts 242°
2026-05-04 10:41 -34.87071 150.27007 31956 ft 423 kts 242°
2026-05-04 10:42 -34.90499 150.21251 32064 ft 415 kts 243°
2026-05-04 10:42 -34.93859 150.15580 32078 ft 411 kts 243°
2026-05-04 10:43 -34.96640 150.10892 32069 ft 410 kts 243°
2026-05-04 10:45 -35.10016 149.88253 32106 ft 411 kts 243°
2026-05-04 10:45 -35.13355 149.82589 32124 ft 411 kts 244°
2026-05-04 10:46 -35.16683 149.76925 32117 ft 410 kts 244°
2026-05-04 10:46 -35.20007 149.71257 32102 ft 410 kts 244°
2026-05-04 10:47 -35.23329 149.65582 32096 ft 410 kts 244°
2026-05-04 10:47 -35.26649 149.59908 32119 ft 410 kts 244°
2026-05-04 10:49 -35.39871 149.37215 32118 ft 409 kts 244°
2026-05-04 10:50 -35.43172 149.31525 32132 ft 410 kts 244°
2026-05-04 10:52 -35.56363 149.08683 32118 ft 410 kts 244°
2026-05-04 10:52 -35.59660 149.02957 32126 ft 410 kts 245°
2026-05-04 10:54 -35.72793 148.80024 32124 ft 410 kts 245°
2026-05-04 10:56 -35.85886 148.57037 32130 ft 409 kts 245°
2026-05-04 10:57 -35.89146 148.51271 32096 ft 410 kts 245°
2026-05-04 10:57 -35.92413 148.45489 32122 ft 411 kts 245°
2026-05-04 10:58 -35.95672 148.39702 32107 ft 410 kts 245°
2026-05-04 10:58 -35.98905 148.33937 32106 ft 410 kts 245°
2026-05-04 10:59 -36.02158 148.28136 32093 ft 411 kts 244°
2026-05-04 10:59 -36.05414 148.22324 32087 ft 412 kts 244°
2026-05-04 11:00 -36.08673 148.16489 32127 ft 412 kts 244°
2026-05-04 11:02 -36.21701 147.93158 32096 ft 412 kts 244°
2026-05-04 11:05 -36.45972 147.49277 32080 ft 412 kts 245°
2026-05-04 11:06 -36.49199 147.43382 32075 ft 413 kts 244°
2026-05-04 11:06 -36.52430 147.37485 32089 ft 413 kts 245°
2026-05-04 11:10 -36.74910 146.96120 32062 ft 411 kts 245°
2026-05-04 11:12 -36.87639 146.72481 32070 ft 411 kts 245°
2026-05-04 11:12 -36.90822 146.66541 32054 ft 411 kts 246°
2026-05-04 11:13 -36.94005 146.60594 32062 ft 411 kts 246°
2026-05-04 11:13 -36.97186 146.54636 32051 ft 412 kts 246°
2026-05-04 11:16 -37.15762 146.29879 32030 ft 425 kts 181°
2026-05-04 11:16 -37.18656 146.30840 32028 ft 440 kts 157°
2026-05-04 11:16 -37.21170 146.33061 32013 ft 447 kts 132°
2026-05-04 11:17 -37.22910 146.36256 32018 ft 443 kts 108°
2026-05-04 11:17 -37.23656 146.39934 32016 ft 429 kts 85°
2026-05-04 11:19 -37.14852 146.60719 32030 ft 386 kts 44°
2026-05-04 11:19 -37.13203 146.63295 31982 ft 372 kts 31°
2026-05-04 11:19 -37.11159 146.65110 32029 ft 361 kts 15°
2026-05-04 11:19 -37.08819 146.66093 32030 ft 352 kts 359°
2026-05-04 11:20 -37.06400 146.66168 32030 ft 347 kts 345°
2026-05-04 11:20 -37.04080 146.65371 32039 ft 346 kts 331°
2026-05-04 11:20 -37.02038 146.63774 32042 ft 350 kts 317°
2026-05-04 11:20 -37.00421 146.61463 32045 ft 360 kts 303°
2026-05-04 11:22 -37.05983 146.39510 31502 ft 418 kts 246°
2026-05-04 11:22 -37.07584 146.36495 30579 ft 414 kts 246°
2026-05-04 11:23 -37.09159 146.33505 29605 ft 409 kts 246°
2026-05-04 11:23 -37.10707 146.30541 28652 ft 403 kts 246°
2026-05-04 11:24 -37.18963 146.14581 23828 ft 372 kts 241°
2026-05-04 11:25 -37.20346 146.11906 23391 ft 357 kts 240°
2026-05-04 11:25 -37.21667 146.09364 23077 ft 338 kts 242°
2026-05-04 11:25 -37.22924 146.06949 22787 ft 325 kts 241°
2026-05-04 11:26 -37.25350 146.02257 22172 ft 316 kts 242°
2026-05-04 11:27 -37.33488 145.86421 20137 ft 301 kts 243°
2026-05-04 11:28 -37.34621 145.84218 19849 ft 299 kts 242°
2026-05-04 11:28 -37.35750 145.82023 19555 ft 298 kts 241°
2026-05-04 11:28 -37.36869 145.79848 19273 ft 295 kts 241°
2026-05-04 11:28 -37.37980 145.77681 18995 ft 294 kts 241°
2026-05-04 11:29 -37.39089 145.75515 18709 ft 295 kts 241°
2026-05-04 11:29 -37.40183 145.73374 18433 ft 294 kts 241°
2026-05-04 11:29 -37.41285 145.71216 18126 ft 292 kts 241°
2026-05-04 11:29 -37.42381 145.69068 17822 ft 291 kts 241°
2026-05-04 11:31 -37.52644 145.50712 14589 ft 404 kts 236°
2026-05-04 11:33 -37.63945 145.31265 10894 ft 381 kts 237°
2026-05-04 11:33 -37.65498 145.28571 10383 ft 378 kts 237°
2026-05-04 11:33 -37.67038 145.25895 9872 ft 375 kts 237°
2026-05-04 11:34 -37.68561 145.23247 9366 ft 371 kts 237°
2026-05-04 11:34 -37.70068 145.20627 8853 ft 368 kts 237°
2026-05-04 11:34 -37.71568 145.18017 8028 ft 366 kts 237°
2026-05-04 11:34 -37.73052 145.15434 7305 ft 360 kts 237°
2026-05-04 11:35 -37.74466 145.12976 6975 ft 330 kts 237°
2026-05-04 11:35 -37.75759 145.10738 6784 ft 300 kts 238°
2026-05-04 11:35 -37.76937 145.08696 6661 ft 275 kts 238°
2026-05-04 11:35 -37.78015 145.06823 6538 ft 253 kts 238°
2026-05-04 11:36 -37.79001 145.05107 6322 ft 238 kts 238°
2026-05-04 11:36 -37.79971 145.03409 5879 ft 233 kts 239°
2026-05-04 11:36 -37.80874 145.01805 5719 ft 217 kts 244°
2026-05-04 11:36 -37.81481 145.00171 5572 ft 195 kts 255°
2026-05-04 11:37 -37.81786 144.98554 5292 ft 186 kts 259°
2026-05-04 11:37 -37.82277 144.97054 4787 ft 194 kts 231°
2026-05-04 11:37 -37.83472 144.96287 4715 ft 200 kts 194°
2026-05-04 11:37 -37.84880 144.96419 4406 ft 208 kts 182°
2026-05-04 11:38 -37.86369 144.96628 3865 ft 221 kts 182°
2026-05-04 11:38 -37.87903 144.96847 3564 ft 222 kts 182°
2026-05-04 11:38 -37.89439 144.97037 3250 ft 219 kts 189°
2026-05-04 11:38 -37.90793 144.96508 3033 ft 194 kts 227°
2026-05-04 11:39 -37.91666 144.95246 2985 ft 189 kts 246°
2026-05-04 11:39 -37.92005 144.93686 2819 ft 183 kts 273°
2026-05-04 11:40 -37.84889 144.87680 2494 ft 258 kts 329°
2026-05-04 11:41 -37.83278 144.86872 2486 ft 241 kts 340°
2026-05-04 11:41 -37.81696 144.86570 2496 ft 218 kts 344°
2026-05-04 11:41 -37.80247 144.86312 2510 ft 208 kts 342°
2026-05-04 11:41 -37.78835 144.86047 2375 ft 202 kts 343°
2026-05-04 11:42 -37.77476 144.85792 2100 ft 192 kts 343°
2026-05-04 11:42 -37.76170 144.85546 1844 ft 187 kts 344°
2026-05-04 11:42 -37.74927 144.85315 1614 ft 173 kts 343°
2026-05-04 11:42 -37.73800 144.85108 1386 ft 151 kts 348°
2026-05-04 11:43 -37.72812 144.84923 1181 ft 139 kts 349°
2026-05-04 11:43 -37.71867 144.84740 1009 ft 135 kts 349°
2026-05-04 11:43 -37.70934 144.84559 833 ft 137 kts 351°
2026-05-04 11:43 -37.69992 144.84382 649 ft 138 kts 353°
2026-05-04 11:44 -37.69065 144.84210 500 ft 133 kts 351°
2026-05-04 11:44 -37.68164 144.84021 358 ft 124 kts 352°
2026-05-04 11:44 -37.67469 144.83893 369 ft 76 kts 351°
2026-05-04 11:44 -37.67114 144.83830 383 ft 27 kts 359°
2026-05-04 11:45 -37.66977 144.83852 386 ft 18 kts 14°
2026-05-04 11:45 -37.66865 144.83898 391 ft 13 kts 22°
2026-05-04 11:45 -37.66810 144.83929 392 ft 5 kts 24°
2026-05-04 11:45 -37.66787 144.83941 393 ft 3 kts 22°
2026-05-04 11:46 -37.66767 144.83953 394 ft 4 kts 29°
2026-05-04 11:46 -37.66744 144.83978 391 ft 5 kts 47°
2026-05-04 11:46 -37.66724 144.84028 395 ft 8 kts 74°
2026-05-04 11:46 -37.66725 144.84107 394 ft 10 kts 105°
2026-05-04 11:47 -37.66779 144.84185 393 ft 14 kts 152°
2026-05-04 11:47 -37.66889 144.84211 389 ft 18 kts 172°
2026-05-04 11:47 -37.67027 144.84235 385 ft 21 kts 172°
2026-05-04 11:47 -37.67164 144.84263 382 ft 20 kts 170°
2026-05-04 11:48 -37.67287 144.84284 380 ft 18 kts 172°
2026-05-04 11:48 -37.67416 144.84307 377 ft 19 kts 171°
2026-05-04 11:48 -37.67472 144.84339 376 ft 8 kts 130°
2026-05-04 11:48 -37.67474 144.84408 377 ft 8 kts 80°
2026-05-04 11:49 -37.67465 144.84485 378 ft 9 kts 81°
2026-05-04 11:49 -37.67457 144.84552 379 ft 8 kts 82°
2026-05-04 11:49 -37.67451 144.84609 380 ft 3 kts 83°
2026-05-04 11:49 -37.67466 144.84625 380 ft 4 kts 156°
2026-05-04 11:50 -37.67498 144.84633 379 ft 3 kts 171°
2026-05-04 11:50 -37.67514 144.84636 379 ft 1 kts 171°
2026-05-04 11:50 -37.67524 144.84638 379 ft 1 kts 171°
2026-05-04 11:50 -37.67527 144.84638 379 ft 0 kts 171°